Location: Asheville, NC
(35.6000°N, 82.5500°W)
Time: 11:54:57
(UTC-04:00)

XW-2B - Pass Details

Date: 11 March 2018
Orbit: 510 x 530 km, 97.5° (Epoch: 21 June)

Event Time Altitude Azimuth Distance (km) Brightness Sun altitude
Rises 06:36:17 0° 33° (NNE) 2,658 ? -15.1°
Reaches altitude 10° 06:39:07 10° 57° (ENE) 1,768 ? -14.5°
Maximum altitude 06:41:26 15° 94° (E) 1,458 ? -14.1°
Drops below altitude 10° 06:43:43 10° 131° (SE) 1,765 ? -13.6°
Sets 06:46:33 0° 155° (SSE) 2,652 ? -13.0°
